Regional Weather Roundup
Issued by NWS Newport/Morehead, NC

Home | Current Version | Previous Version | Text Only | Print | Product List | Glossary On
Versions: 1 2 3 4 5 6 7 8 9 10 11 12 13 14 15 16 17 18 19 20 21 22 23 24 25 26 27 28 29 30 31 32 33 34 35 36 37 38 39 40 41 42 43 44 45 46 47 48 49 50
000
ASUS42 KMHX 030625
RWRMHX
WEATHER ROUNDUP FOR EASTERN NORTH CAROLINA
NATIONAL WEATHER SERVICE NEWPORT/MOREHEAD CITY NC
200 AM EDT THU SEP 03 2015

NOTE: "FAIR" INDICATES FEW OR NO CLOUDS BELOW 12,000 FEET
WITH NO SIGNIFICANT WEATHER AND/OR OBSTRUCTIONS TO VISIBILITY

NCZ015>017-031-032-045>047-102-103-030700-
NORTH COAST

CITY           SKY/WX    TMP DP  RH WIND       PRES   REMARKS
EDENTON        FAIR      72  70  93 SW6       29.94F
ELIZABETH CITY FAIR      71  69  93 W3        29.94F
KITTY HAWK     CLOUDY    76  69  79 W8G18     29.93F
MANTEO         FAIR      75  70  84 W9        29.95S

$$

NCZ045>047-081-094-103-104-030700-
CENTRAL COAST

CITY           SKY/WX    TMP DP  RH WIND       PRES   REMARKS
FRISCO         CLOUDY    79  73  82 W6        29.95F
SWANQUARTER      N/A     72 N/A N/A NW6       29.91F

$$

NCZ095-097-098-100-101-030700-
SOUTHERN COAST

CITY           SKY/WX    TMP DP  RH WIND       PRES   REMARKS
BEAUFORT       HVY RAIN  75  71  87 N20G33    29.99R FOG
CEDAR ISLAND     N/A     77 N/A N/A NW16G24   30.00S
JACKSONVILLE   MOCLDY    75  67  76 NE8       29.97S
PINEY ISLAND   LGT RAIN N/A N/A N/A NW17G23   29.98R
WILMINGTON     FAIR      78  73  84 SW7       29.96F


$$

NCZ011>013-027>030-043-044-078>080-089-090>093-098-030700-
COASTAL PLAIN

CITY           SKY/WX    TMP DP  RH WIND       PRES   REMARKS
AHOSKIE        FAIR      68  68  98 N3        29.96S FOG
CLINTON        FAIR      76  72  86 E6        29.97F
ELIZABETHTOWN  FAIR      77  74  89 SW5       29.95F
GOLDSBORO      TSTM      70  70 100 SE5       29.99R VSB 3/4
GREENVILLE     FAIR      70  70 100 S3        29.96F
HAVELOCK       MOCLDY    76  67  73 N17G25    29.99F
KENANSVILLE      N/A     73  67  83 CALM      29.98F
KINSTON        LGT RAIN  71  70  96 SW8       29.95F
NEW BERN       CLOUDY    71  66  84 N9        29.98F
RICHLANDS      MOCLDY    73  64  73 NE7       29.97F
ROCKY MOUNT    FAIR      71  70  96 SW5       29.96F
WASHINGTON     FAIR      70  69  96 CALM      29.94F
WHITEVILLE     FAIR      76  73  88 CALM      29.95F

$$

AMZ130-135-150-152-154-156-158-170-250-252-270-ANZ085-086-088-633-658-670-030700-
MARINE OBSERVATIONS

STATION/POSITION TIME  TEMP    WIND        PRES    WAVE   SWELL
                       AIR SEA DIR/SP/G            HT/PER HT/PER
                 (UTC) (F)     (DEG/KT/KT) (MB)    (FT/S) (FT/S)
CHESAPEAKE LIGHT 0600   76     280/ 13/ 14 1014.2
64 E VA BEACH    0550   79 79  300/ 12/ 14 1013.0    1/ 9   2/ 9
DUCK             0600   76 80  270/ 14/ 17 1013.0
2 E DUCK         0511      81                N/A     1/13
OREGON INLET     0600   78 84  270/  9/ 13 1013.9
13E OREGON INLT  0600      81                N/A     2/13
HATTERAS CG      0600   81 83  270/ 14/ 16 1014.1
DIAMOND BUOY     0550   82 85  250/  8/ 10 1014.3    1/14   2/14
CAPE LOOKOUT     0600   80     250/  8/ 11 1014.0
BEAUFORT LAB     0600   73 81  340/ 19/ 24 1014.8
30 SE NEW RVR IN 0508   82 82  260/ 12/ 14 1015.1
30 SE NEW RVR IN 0525      82                N/A     2/ 9
27 SE WRIGHTSVLE 0600   78 82  270/ 12/ 14   N/A
5 SE WRIGHTSVLE  0508   81 82  260/  8/ 12 1015.0
225 S CAPE HAT   0550   83 83  290/  6/  8 1014.7    2/13   2/13
41 SE CHARLESTON 0550   82 84  280/  4/  4 1014.6    2/ 7   2/ 7

$$



USA.gov is the U.S. government's official web portal to all federal, state and local government web resources and services.